Shungnak AP, Shungnak, AK, AK

12:12 AM AKST on December 06, 2019 (GMT -0900)
Shungnak AP, Shungnak, AK

Weather History for PAGH - October, 2019

Change the Weather History Date:

Tuesday, October 22, 2019

  Actual Average (PAFM) Record (PAFM)
Temperature  
Mean Temperature 24 °F -  
Max Temperature 28 °F 19 °F 38 °F (1987)
Min Temperature 19 °F 11 °F -7 °F (1997)
Degree Days  
Heating Degree Days 42    
Moisture  
Dew Point 18 °F    
Average Humidity 79    
Maximum Humidity 92    
Minimum Humidity 64    
Precipitation  
Precipitation 0.00 in - - ()
Sea Level Pressure  
Sea Level Pressure 29.92 in    
Wind  
Wind Speed 4 mph (ESE)    
Max Wind Speed 9 mph    
Max Gust Speed -    
Visibility 10 miles    
Events      
Averages and records for this station are not official NWS values.
T = Trace of Precipitation, MM = Missing Value Source: NWS Daily Summary

Daily Weather History Graph

Daily Weather History Graph

Search for Another Location

Airport or City:

Astronomy

Oct. 22, 2019 Rise Set
Actual Time 9:53 AM AKDT 6:31 PM AKDT
Civil Twilight 8:56 AM AKDT 7:27 PM AKDT
Nautical Twilight 7:54 AM AKDT 8:29 PM AKDT
Astronomical Twilight 6:52 AM AKDT 9:31 PM AKDT
Moon No Moon Rise 7:11 PM AKDT (10/22)
Length of Visible Light 10h 31m
Length of Day
8h 38m
Waning Crescent, 35% of the Moon is Illuminated
Oct 22
Waning Crescent
Oct 27
New
Nov 4
First Quarter
Nov 12
Full
Nov 19
Last Quarter

Hourly Weather History & Observations

Time (AKDT) Temp. Windchill Dew Point Humidity Pressure Visibility Wind Dir Wind Speed Gust Speed Precip Events Conditions
12:56 AM 27.0 °F 21.6 °F 21.9 °F 81% 29.79 in 10.0 mi SSW 4.6 mph - N/A   Overcast
1:56 AM 26.1 °F 20.5 °F 21.9 °F 84% 29.80 in 10.0 mi SW 4.6 mph - N/A   Overcast
2:56 AM 25.0 °F 20.7 °F 19.9 °F 81% 29.82 in 10.0 mi SW 3.5 mph - N/A   Overcast
3:56 AM 23.0 °F 17.0 °F 19.0 °F 85% 29.83 in 10.0 mi WSW 4.6 mph - N/A   Overcast
4:56 AM 21.9 °F 17.2 °F 18.0 °F 85% 29.84 in 10.0 mi SW 3.5 mph - N/A   Overcast
5:56 AM 21.9 °F - 18.0 °F 85% 29.85 in 10.0 mi Calm Calm - N/A   Overcast
6:56 AM 21.9 °F - 18.0 °F 85% 29.87 in 10.0 mi Calm Calm - N/A   Overcast
7:56 AM 21.9 °F - 18.0 °F 85% 29.88 in 10.0 mi Calm Calm - N/A   Overcast
8:56 AM 21.9 °F 17.2 °F 18.0 °F 85% 29.90 in 10.0 mi South 3.5 mph - N/A   Overcast
9:56 AM 21.9 °F - 18.0 °F 85% 29.91 in 10.0 mi Calm Calm - N/A   Overcast
10:56 AM 21.0 °F - 18.0 °F 88% 29.93 in 10.0 mi Calm Calm - N/A   Overcast
11:56 AM 23.0 °F - 21.0 °F 92% 29.94 in 10.0 mi Calm Calm - N/A   Overcast
12:56 PM 25.0 °F 20.7 °F 17.1 °F 72% 29.96 in 10.0 mi East 3.5 mph - N/A   Overcast
1:56 PM 27.0 °F 23.0 °F 19.9 °F 75% 29.97 in 10.0 mi East 3.5 mph - N/A   Overcast
2:56 PM 28.0 °F 21.7 °F 18.0 °F 66% 29.98 in 10.0 mi East 5.8 mph - N/A   Overcast
3:33 PM 28.4 °F 22.2 °F 17.6 °F 64% 29.95 in 6.0 mi East 5.8 mph - N/A   Haze
3:56 PM 28.0 °F 22.8 °F 18.0 °F 66% 29.97 in 10.0 mi East 4.6 mph - N/A   Overcast
4:56 PM 28.0 °F 22.8 °F 18.0 °F 66% 29.98 in 9.0 mi ESE 4.6 mph - N/A   Overcast
5:56 PM 27.0 °F 20.5 °F 19.0 °F 72% 29.97 in 10.0 mi East 5.8 mph - N/A   Overcast
6:51 PM 24.8 °F 17.9 °F 15.8 °F 69% 29.95 in 10.0 mi East 5.8 mph - N/A   Scattered Clouds
6:56 PM 23.0 °F 15.8 °F 16.0 °F 74% 29.97 in 10.0 mi East 5.8 mph - N/A   Scattered Clouds
7:56 PM 19.9 °F 10.1 °F 15.1 °F 81% 29.97 in 10.0 mi East 8.1 mph - N/A   Clear
8:56 PM 19.0 °F 9.0 °F 15.1 °F 85% 29.97 in 10.0 mi East 8.1 mph - N/A   Clear
10:56 PM 19.0 °F 8.2 °F 15.1 °F 85% 29.96 in 10.0 mi East 9.2 mph - N/A   Clear
11:56 PM 19.0 °F 9.0 °F 14.0 °F 81% 29.93 in 10.0 mi East 8.1 mph - N/A   Clear